Tracking 31027 objects as of 19-Jul-2025
HD Live streaming from Space Station
objects crossing your sky now

OPS 9324 (IDSCS 11)

Track OPS 9324 (IDSCS 11) now!
OPS 9324 (IDSCS 11) is classified as:


NORAD ID: 2651
Int'l Code: 1967-003D
Perigee: 33,587.8 km
Apogee: 33,875.0 km
Inclination: 7.6 °
Period: 1,332.0 minutes
Semi major axis: 40102 km
RCS: 0.1995 m2 (medium)
Launch date: January 18, 1967
Source: United States (US)
Launch site: AIR FORCE EASTERN TEST RANGE (AFETR)
Your satellite tracking list
EKRAN 2 DEB
Track 1 satellite(s)




NASA's NSSDC Master Catalog

Two Line Element Set (TLE):
1 02651U 67003D   25197.66634988 -.00000093  00000-0  00000-0 0  9997
2 02651   7.6329  48.1595 0035814  88.0293 155.6149  1.08105341137113
Source of the keplerian elements: AFSPC